Location: Lecco
(45.8566°N, 9.3977°E)
Time: 12:47:08
(UTC+02:00)

Vanguard 2 Rocket - Pass Details

Date: 23 August 2020
Orbit: 554 x 3326 km, 32.9° (Epoch: 24 September)

Event Time Altitude Azimuth Distance (km) Brightness Sun altitude
Rises 18:59:45 0° 248° (WSW) 2,922 10.8 12.3°
Reaches altitude 10° 19:02:41 10° 224° (SW) 2,231 9.6 11.8°
Maximum altitude 19:05:40 15° 188° (S) 2,144 8.9 11.3°
Drops below altitude 10° 19:09:24 10° 154° (SSE) 2,910 9.2 10.6°
Sets 19:14:11 0° 135° (SE) 4,433 10.0 9.8°
